NAPA-2 (48963 NORAD) Tracking and Keplerian Element Data

This shows tracking and keplerian element data for the satellite.

Feedback or suggestion? Click here.




ElementValue
Catalog48963
NameNAPA-2
Epoch Orbit1873
Epoch Day300.79498596
Epoch Year2021
RAAN67.6979
Inclination97.5243
Eccentricity0.0014147
Argument of Perigee168.8264
Mean Anonmoly333.8343
Mean Motion15.1214644
Decay Rate6.81E-06
L11 48963U 21059CN 21300.79498596 .00000681 00000-0 43202-4 0 9990
L22 48963 97.5243 67.6979 0014147 168.8264 333.8343 15.12146440 18732

Live tracking and technical data element details for NAPA-2 (NORAD 48963). NAPA-2 can be tracked NOW for your location showing map with azimuth and elevation plus other details from your city location.

Track the satellite on the map from your city or location and see movement details for azimuth, elevation, latitude, longitude, range, height, and movement on the map or in text.







IsCatalogInMostPopularTable: catalog: 48963, numindb: 21
Update: records affected: 1



GetName: 48963 NAPA-2

Hit Count: updated at: Thu, 28 Oct 2021 10:09:21 GMT